User: anonymous   Login
Location: ROBOsky.com Wild Flower Ridge Observatory
(43.9736°N, 79.9739°W)
Time: 14:04:32
(UTC-04:00)
Language:

Cosmos 1190 Rocket - Orbit

View from above orbital plane
View from above orbital plane
View from above satellite
View from above satellite

Ground track
Ground track

The orbit data is extracted from the following two-line orbital elements,

1 11870U 80056B   16125.51821867  .00000067  00000-0  31611-4 0  9998
2 11870  74.0532 238.1492 0017415 291.5585  68.3712 14.36792182876115
Epoch (UTC): 04 May 2016 12:26:14
Eccentricity: 0.0017415
inclination: 74.0532°
perigee height: 756 km
apogee height: 781 km
right ascension of ascending node: 238.1492°
argument of perigee: 291.5585°
revolutions per day: 14.36792182
mean anomaly at epoch: 68.3712°
orbit number at epoch: 87611

The dashed part of the orbit path shows where the satellite is in the earth's shadow,  

DLR